C/2006 L1 ( Garradd )

Japanese version
Home page
Updated on January 20, 2013

---------------------------------------------------------------------

* Profile

Discovery Date June 4, 2006
Magnitude 17.9 mag
Discoverer Gordon J. Garradd (Siding Spring Survey)

* Pictures

* Orbital Elements

Epoch 2006 Nov. 1.0 TT = JDT 2454040.5
T 2006 Oct. 18.00256 TT                                 MPC
q   1.4620711            (2000.0)            P               Q
z  +0.0018275      Peri.  338.40984     -0.47813164     +0.65432898
 +/-0.0000019      Node   101.76018     +0.86766754     +0.24847946
e   0.9973281      Incl.  143.24235     +0.13617331     +0.71422094
From 634 observations 2006 June 4-2007 Mar. 12, mean residual 0".5.

* Finding Charts

* Magnitudes Graph

        m1 = 4.0 + 5 log d + 30.0 log r(t - 20)

---------------------------------------------------------------------

The orbital elements are published on M.P.E.C. 2013-A29.
The charts are made with StellaNavigator Ver.2.0 for Windows (AstroArts / ASCII).
The magnitudes graphs are made with Comet for Windows.

---------------------------------------------------------------------

Copyright(C) Seiichi Yoshida (comet@aerith.net). All rights reserved.